Regional Weather Roundup
Issued by NWS

Home | Current Version | Previous Version | Text Only | Print | Product List | Glossary Off
Versions: 1 2 3 4 5 6 7 8 9 10 11 12 13 14 15 16 17 18 19 20 21 22 23 24 25 26 27 28 29 30 31 32 33 34 35 36 37 38 39 40 41 42 43 44 45 46 47 48 49 50

000
ASUS44 KMEG 080610
RWRTN
TENNESSEE HOURLY STATE WEATHER ROUNDUP
NATIONAL WEATHER SERVICE MEMPHIS TN
1200 AM CST THU DEC 08 2016

TNZ002-004-019-021-049-052-054-088>092-080700-
WEST TENNESSEE

CITY           SKY/WX    TMP DP  RH WIND       PRES   REMARKS
MEMPHIS INTL   CLOUDY    41  26  55 N5        30.30R
NWS MEMPHIS      N/A     40 N/A N/A MISG        N/A
JACKSON        CLOUDY    40  26  57 N14       30.29R WCI  32
DYERSBURG      CLOUDY    37  21  52 N12       30.31S WCI  30
UNION CITY     CLOUDY    36  25  64 CALM      30.29F
PARIS          CLOUDY    34  19  55 N6        30.29R WCI  29
HUNTINGDON     CLOUDY    39  27  60 VRB7G13   30.28R WCI  34
LEXINGTON      CLOUDY    39  25  56 N9        30.26R WCI  33
$$

TNZ008-025-027-028-033-062-065-066-080700-
NORTH MIDDLE TENNESSEE

CITY           SKY/WX    TMP DP  RH WIND       PRES   REMARKS
NASHVILLE      CLOUDY    40  24  53 N8        30.24S WCI  34
PORTLAND       CLOUDY    36  25  64 N7        30.22F WCI  30
CLARKSVILLE    CLOUDY    37  22  54 NW12      30.26R WCI  29
SMYRNA         CLOUDY    39  26  59 N9        30.25R WCI  33
GALLATIN       CLOUDY    37  21  52 N7        30.26S WCI  32
CROSSVILLE     CLOUDY    36  25  64 N7        30.14R WCI  30
$$

TNZ061-075-076-078-094-096-097-080700-
SOUTH MIDDLE TENNESSEE

CITY           SKY/WX    TMP DP  RH WIND       PRES   REMARKS
FAYETTEVILLE   CLOUDY    39  34  81 N6        30.19R WCI  35
TULLAHOMA      MOCLDY    36  30  80 N7        30.19R WCI  30
WINCHESTER     CLOUDY    37  34  87 N5        30.18S WCI  34
MCMINNVILLE    CLOUDY    37  28  70 N9          N/A  WCI  31
COLUMBIA       CLOUDY    39  30  70 N6        30.21R WCI  35
SHELBYVILLE    CLOUDY    37  32  81 N9        30.22R WCI  31
$$

TNZ017-018-042-046-047-080700-
NORTHEAST TENNESSEE

CITY           SKY/WX    TMP DP  RH WIND       PRES   REMARKS
TRI CITIES     CLOUDY    40  32  73 NW5       30.08F
ELIZABETHTON   DRIZZLE   41  37  87 CALM      30.07S
$$

TNZ012-013-036-069-073-074-080700-
CENTRAL EAST TENNESSEE

CITY           SKY/WX    TMP DP  RH WIND       PRES   REMARKS
KNOXVILLE      CLOUDY    43  35  73 CALM      30.11F
OAK RIDGE      CLOUDY    42  37  82 CALM      30.13F
DOWNTOWN KNOXV CLOUDY    45  32  61 CALM      30.13F
GATLINBURG     CLOUDY    43  34  70 W5        30.12R
MORRISTOWN     CLOUDY    43  32  65 CALM      30.09S
JACKSBORO      CLOUDY    39  25  56 CALM      30.17S
$$

TNZ083-085-099-080700-
SOUTHEAST TENNESSEE

CITY           SKY/WX    TMP DP  RH WIND       PRES   REMARKS
CHATTANOOGA    CLOUDY    43  36  76 NW3       30.15F
$$

SKY/WX REPORTED AS FAIR MEANS FEW OR NO CLOUDS BELOW
12 THOUSAND FEET.




USA.gov is the U.S. government's official web portal to all federal, state and local government web resources and services.